Zurück zum Katalog

TITAN 34D TRANSTAGE DEB

AktivHEO
NORAD 23038·DEBRIS·🇺🇸 United States

Gestartet Sep 2, 1988 von Cape Canaveral Space Force Station

Loading…

Nächste Überflüge (nächste 24 Stunden)

TLE

AktuellSource: Space-Track

Epoche: Sep 13, 2026, 06:19 UTC

1 23038U 88077H   26256.26329544  .00005700  00000-0  40362-2 0  9991
2 23038  26.9728 335.6436 6802970 160.6914 249.0887  2.85937006 69150

Verfolge TITAN 34D TRANSTAGE DEB in Echtzeit mit AllMySat

Download on the App Store